Weather History for Crestview, FL

Change the Weather History Date:

Friday, January 4, 2013

  Actual Average Record
Temperature  
Mean Temperature 43 °F -  
Max Temperature 54 °F - - ()
Min Temperature 32 °F - - ()
Degree Days  
Heating Degree Days 22    
Moisture  
Dew Point 32 °F    
Average Humidity 71    
Maximum Humidity 91    
Minimum Humidity 38    
Precipitation  
Precipitation 0.00 in - - ()
Sea Level Pressure  
Sea Level Pressure 30.36 in    
Wind  
Wind Speed 5 mph (North)    
Max Wind Speed 12 mph    
Max Gust Speed -    
Visibility 10 miles    
Events      
T = Trace of Precipitation, MM = Missing Value Source: NWS Daily Summary

Daily Weather History Graph

Daily Weather History Graph

Search for Another Location

Airport:

Trip Planner

Search our weather history database for the weather conditions in past years. The results will help you decide how hot, cold, wet, or windy it might be!

Date:

Astronomy

Jan. 04, 2013 Rise Set
Actual Time 6:44 AM CST 4:58 PM CST
Civil Twilight 6:17 AM CST 5:24 PM CST
Nautical Twilight 5:47 AM CST 5:54 PM CST
Astronomical Twilight 5:18 AM CST 6:24 PM CST
Moon No Moon Rise 10:57 AM CST (1/4)
Length of Visible Light 11h 07m
Length of Day
10h 14m
Waning Gibbous, 55% of the Moon is Illuminated
Jan 4
Waning Gibbous
Jan 4
Last Quarter
Jan 11
New
Jan 18
First Quarter
Jan 26
Full

Hourly Weather History & Observations

Time (CST) Temp. Windchill Dew Point Humidity Pressure Visibility Wind Dir Wind Speed Gust Speed Precip Events Conditions
12:55 AM 34.9 °F 29.9 °F 31.6 °F 88% 30.34 in 10.0 mi North 5.8 mph - N/A   Mostly Cloudy
1:55 AM 35.1 °F 32.2 °F 31.1 °F 85% 30.34 in 10.0 mi North 3.5 mph - N/A   Mostly Cloudy
2:55 AM 34.3 °F 30.2 °F 30.4 °F 85% 30.33 in 10.0 mi NNW 4.6 mph - N/A   Partly Cloudy
3:55 AM 34.3 °F 30.2 °F 30.6 °F 86% 30.33 in 10.0 mi North 4.6 mph - N/A   Mostly Cloudy
4:55 AM 33.4 °F 28.1 °F 29.7 °F 86% 30.33 in 10.0 mi North 5.8 mph - N/A   Partly Cloudy
5:55 AM 32.9 °F 27.5 °F 29.3 °F 87% 30.35 in 10.0 mi North 5.8 mph - N/A   Clear
6:55 AM 32.0 °F - 28.6 °F 87% 30.37 in 10.0 mi Calm Calm - N/A   Clear
7:55 AM 36.0 °F 32.1 °F 30.0 °F 79% 30.40 in 10.0 mi North 4.6 mph - N/A   Clear
8:55 AM 40.6 °F 34.8 °F 30.9 °F 68% 30.40 in 10.0 mi NNE 9.2 mph - N/A   Mostly Cloudy
9:58 AM 43.5 °F 37.5 °F 30.6 °F 60% 30.40 in 10.0 mi NNE 11.5 mph - N/A   Mostly Cloudy
10:55 AM 46.9 °F - 31.8 °F 56% 30.40 in 10.0 mi North 9.2 mph - N/A   Mostly Cloudy
11:57 AM 50.7 °F - 29.8 °F 45% 30.38 in 10.0 mi NNE 9.2 mph - N/A   Mostly Cloudy
12:55 PM 53.2 °F - 31.8 °F 44% 30.35 in 10.0 mi North 9.2 mph - N/A   Mostly Cloudy
1:55 PM 54.9 °F - 29.3 °F 38% 30.33 in 10.0 mi North 11.5 mph - N/A   Mostly Cloudy
2:55 PM 54.9 °F - 29.5 °F 38% 30.32 in 10.0 mi NNE 9.2 mph - N/A   Mostly Cloudy
3:55 PM 54.1 °F - 31.8 °F 43% 30.34 in 10.0 mi North 5.8 mph - N/A   Mostly Cloudy
4:55 PM 50.7 °F - 33.4 °F 52% 30.34 in 10.0 mi Calm Calm - N/A   Mostly Cloudy
5:55 PM 44.4 °F - 38.5 °F 80% 30.36 in 10.0 mi Calm Calm - N/A   Mostly Cloudy
6:55 PM 44.8 °F 43.3 °F 35.4 °F 70% 30.38 in 10.0 mi NNW 3.5 mph - N/A   Mostly Cloudy
7:55 PM 43.2 °F 41.5 °F 36.3 °F 77% 30.39 in 10.0 mi NNW 3.5 mph - N/A   Mostly Cloudy
8:55 PM 40.5 °F 38.4 °F 35.8 °F 83% 30.38 in 10.0 mi North 3.5 mph - N/A   Mostly Cloudy
9:55 PM 39.9 °F - 34.7 °F 82% 30.38 in 10.0 mi Calm Calm - N/A   Mostly Cloudy
10:55 PM 37.9 °F 34.4 °F 35.4 °F 91% 30.37 in 10.0 mi NNW 4.6 mph - N/A   Mostly Cloudy
11:55 PM 37.4 °F 33.8 °F 34.9 °F 91% 30.35 in 10.0 mi North 4.6 mph - N/A   Mostly Cloudy